Date String (YYYY-MM-DD hh:mm:ss) UTC,Instrument flags,absolute air pressure of the measurement (hPa),sample flow rate (lpm),inlet stack bypass flow (lpm),air temperature of the measurement (°C),ambient temperature measured by the external sensor (°C),aerosol sample conditioner tube jacket temperature (°C),OPC LED temperature (°C),internal box temperature (°C),relative humidity of the measurement (%),span deviation,mass concentration of particles derived from Lorenz-Mie calculation of OPC scattering (μg/m³),mass concentration of particles derived from Lorenz-Mie calculation of OPC scattering (μg/m³),mass concentration of particles derived from Lorenz-Mie calculation of OPC scattering (μg/m³)
DateTimeUTC,F1_M11,P_M11,Q1_M11,Q2_M11,T1_M11,T2_M11,T3_M11,T4_M11,T5_M11,U1_M11,ZSPAN_M11,X0_M11,X2_M11,X1_M11
2024-03-03 21:00:00,SystemResetWarning,0815.2,4.99,000.00,018.4,017.8,000.0,026.7,020.0,13.3,0000.0,0003.36,0000.56,0000.21
2024-03-03 21:01:00,SystemResetWarning,0815.2,4.99,000.00,018.5,017.9,000.0,026.7,020.1,13.4,0000.0,0003.03,0000.58,0000.21
2024-03-03 21:02:00,SystemResetWarning,0815.2,4.99,000.00,018.4,017.9,000.0,026.7,020.1,13.0,0000.0,0003.03,0000.61,0000.22
2024-03-03 21:03:00,SystemResetWarning,0815.3,4.99,000.00,018.5,017.8,000.0,026.7,020.1,13.0,0000.0,0003.07,0000.62,0000.22
2024-03-03 21:04:00,SystemResetWarning,0815.3,5.00,000.00,018.5,017.8,000.0,026.7,020.1,13.1,0000.0,0003.13,0000.64,0000.22
2024-03-03 21:05:00,SystemResetWarning,0815.4,5.01,000.00,018.4,017.8,000.0,026.7,020.0,12.8,0000.0,0003.11,0000.61,0000.21
2024-03-03 21:06:00,SystemResetWarning,0815.5,5.00,000.00,018.4,017.8,000.0,026.7,020.0,13.0,0000.0,0003.13,0000.61,0000.22
2024-03-03 21:07:00,SystemResetWarning,0815.5,5.01,000.00,018.5,017.9,000.0,026.7,020.1,13.1,0000.0,0003.26,0000.62,0000.21
2024-03-03 21:08:00,SystemResetWarning,0815.6,5.00,000.00,018.5,017.9,000.0,026.7,020.0,13.0,0000.0,0002.78,0000.63,0000.22
2024-03-03 21:09:00,SystemResetWarning,0815.5,5.00,000.00,018.5,017.9,000.0,026.7,020.1,13.2,0000.0,0003.13,0000.64,0000.22
2024-03-03 21:10:00,SystemResetWarning,0815.6,5.00,000.00,018.5,017.8,000.0,026.7,020.1,12.9,0000.0,0002.99,0000.61,0000.22
2024-03-03 21:11:00,SystemResetWarning,0815.6,4.99,000.00,018.5,017.8,000.0,026.7,020.1,13.0,0000.0,0002.72,0000.60,0000.22
2024-03-03 21:12:00,SystemResetWarning,0815.6,5.00,000.00,018.5,017.8,000.0,026.7,020.1,13.3,0000.0,0002.67,0000.60,0000.21
2024-03-03 21:13:00,SystemResetWarning,0815.5,5.00,000.00,018.5,017.8,000.0,026.7,020.1,13.1,0000.0,0002.70,0000.57,0000.20
2024-03-03 21:14:00,SystemResetWarning,0815.6,5.00,000.00,018.4,017.8,000.0,026.7,020.1,13.2,0000.0,0003.51,0000.56,0000.19
2024-03-03 21:15:00,SystemResetWarning,0815.6,5.01,000.00,018.4,017.8,000.0,026.7,020.1,13.4,0000.0,0003.79,0000.54,0000.19
2024-03-03 21:16:00,SystemResetWarning,0815.6,5.01,000.00,018.4,017.8,000.0,026.7,020.0,13.4,0000.0,0003.88,0000.53,0000.18
2024-03-03 21:17:00,SystemResetWarning,0815.5,5.00,000.00,018.4,017.8,000.0,026.7,020.0,13.5,0000.0,0004.00,0000.55,0000.20
2024-03-03 21:18:00,SystemResetWarning,0815.5,5.00,000.00,018.4,017.8,000.0,026.7,020.1,13.4,0000.0,0004.17,0000.56,0000.20
2024-03-03 21:19:00,SystemResetWarning,0815.5,5.00,000.00,018.5,017.8,000.0,026.7,020.0,13.5,0000.0,0003.86,0000.55,0000.19
2024-03-03 21:20:00,SystemResetWarning,0815.6,4.99,000.00,018.5,017.8,000.0,026.7,020.1,13.7,0000.0,0003.46,0000.54,0000.20
2024-03-03 21:21:00,SystemResetWarning,0815.5,5.01,000.00,018.5,017.8,000.0,026.7,020.1,13.8,0000.0,0003.32,0000.54,0000.20
2024-03-03 21:22:00,SystemResetWarning,0815.4,5.01,000.00,018.5,017.8,000.0,026.7,020.1,13.6,0000.0,0003.61,0000.60,0000.20
2024-03-03 21:23:00,SystemResetWarning,0815.5,4.99,000.00,018.5,017.8,000.0,026.7,020.1,13.9,0000.0,0003.84,0000.65,0000.21
2024-03-03 21:24:00,SystemResetWarning,0815.4,4.99,000.00,018.5,017.8,000.0,026.7,020.1,13.8,0000.0,0003.71,0000.63,0000.22
2024-03-03 21:25:00,SystemResetWarning,0815.4,4.99,000.00,018.5,017.9,000.0,026.7,020.1,13.4,0000.0,0002.87,0000.63,0000.22
2024-03-03 21:26:00,SystemResetWarning,0815.3,5.00,000.00,018.5,017.8,000.0,026.7,020.1,13.5,0000.0,0003.37,0000.67,0000.23
2024-03-03 21:27:00,SystemResetWarning,0815.3,5.01,000.00,018.5,017.8,000.0,026.7,020.1,13.3,0000.0,0004.05,0000.64,0000.23
2024-03-03 21:28:00,SystemResetWarning,0815.3,5.01,000.00,018.5,017.8,000.0,026.7,020.1,13.3,0000.0,0004.85,0000.63,0000.22
2024-03-03 21:29:00,SystemResetWarning,0815.4,5.00,000.00,018.5,017.8,000.0,026.7,020.1,13.5,0000.0,0004.64,0000.60,0000.21
2024-03-03 21:30:00,SystemResetWarning,0815.4,5.01,000.00,018.5,017.9,000.0,026.7,020.1,13.3,0000.0,0004.56,0000.57,0000.21
2024-03-03 21:31:00,SystemResetWarning,0815.6,5.00,000.00,018.5,017.9,000.0,026.7,020.1,13.6,0000.0,0004.63,0000.55,0000.21
2024-03-03 21:32:00,SystemResetWarning,0815.6,5.00,000.00,018.5,017.9,000.0,026.7,020.1,13.6,0000.0,0005.02,0000.55,0000.21
2024-03-03 21:33:00,SystemResetWarning,0815.5,5.00,000.00,018.5,017.9,000.0,026.7,020.1,13.3,0000.0,0004.75,0000.51,0000.21
2024-03-03 21:34:00,SystemResetWarning,0815.4,5.00,000.00,018.5,017.9,000.0,026.7,020.1,13.3,0000.0,0004.63,0000.48,0000.20
2024-03-03 21:35:00,SystemResetWarning,0815.4,5.00,000.00,018.5,017.9,000.0,026.7,020.1,13.5,0000.0,0004.79,0000.50,0000.20
2024-03-03 21:36:00,SystemResetWarning,0815.3,5.00,000.00,018.5,018.0,000.0,026.7,020.1,13.4,0000.0,0004.98,0000.54,0000.20
2024-03-03 21:37:00,SystemResetWarning,0815.5,5.00,000.00,018.5,018.0,000.0,026.7,020.1,13.4,0000.0,0004.83,0000.51,0000.20
2024-03-03 21:38:00,SystemResetWarning,0815.5,5.00,000.00,018.5,018.0,000.0,026.7,020.2,13.3,0000.0,0004.18,0000.52,0000.19
2024-03-03 21:39:00,SystemResetWarning,0815.6,5.00,000.00,018.6,018.0,000.0,026.7,020.2,13.4,0000.0,0003.00,0000.51,0000.19
2024-03-03 21:40:00,SystemResetWarning,0815.6,5.01,000.00,018.6,018.0,000.0,026.7,020.2,13.5,0000.0,0002.89,0000.49,0000.19
2024-03-03 21:41:00,SystemResetWarning,0815.5,5.00,000.00,018.6,018.0,000.0,026.7,020.2,13.2,0000.0,0002.90,0000.51,0000.20
2024-03-03 21:42:00,SystemResetWarning,0815.6,5.00,000.00,018.6,018.0,000.0,026.7,020.2,13.2,0000.0,0002.95,0000.53,0000.20
2024-03-03 21:43:00,SystemResetWarning,0815.6,5.00,000.00,018.6,018.0,000.0,026.7,020.2,12.9,0000.0,0002.18,0000.53,0000.20
2024-03-03 21:44:00,SystemResetWarning,0815.5,5.00,000.00,018.6,018.0,000.0,026.8,020.2,13.0,0000.0,0002.16,0000.53,0000.20
2024-03-03 21:45:00,SystemResetWarning,0815.3,5.00,000.00,018.6,018.0,000.0,026.8,020.2,12.8,0000.0,0002.01,0000.48,0000.20
2024-03-03 21:46:00,SystemResetWarning,0815.4,4.99,000.00,018.6,018.1,000.0,026.8,020.2,12.7,0000.0,0001.88,0000.48,0000.20
2024-03-03 21:47:00,SystemResetWarning,0815.4,5.00,000.00,018.6,018.1,000.0,026.8,020.2,12.6,0000.0,0001.83,0000.48,0000.20
2024-03-03 21:48:00,SystemResetWarning,0815.5,4.99,000.00,018.6,018.1,000.0,026.8,020.3,12.8,0000.0,0002.40,0000.52,0000.20
2024-03-03 21:49:00,SystemResetWarning,0815.4,5.00,000.00,018.7,018.1,000.0,026.8,020.3,12.8,0000.0,0002.00,0000.51,0000.20
2024-03-03 21:50:00,SystemResetWarning,0815.4,5.00,000.00,018.7,018.1,000.0,026.8,020.3,12.5,0000.0,0001.96,0000.50,0000.20
2024-03-03 21:51:00,SystemResetWarning,0815.4,5.01,000.00,018.7,018.1,000.0,026.8,020.3,12.5,0000.0,0002.09,0000.53,0000.20
2024-03-03 21:52:00,SystemResetWarning,0815.3,5.00,000.00,018.7,018.1,000.0,026.8,020.3,12.7,0000.0,0002.56,0000.55,0000.21
2024-03-03 21:53:00,SystemResetWarning,0815.2,5.00,000.00,018.7,018.1,000.0,026.8,020.3,12.5,0000.0,0003.36,0000.56,0000.21
2024-03-03 21:54:00,SystemResetWarning,0815.3,5.00,000.00,018.7,018.1,000.0,026.8,020.3,12.7,0000.0,0003.41,0000.57,0000.21
2024-03-03 21:55:00,SystemResetWarning,0815.4,5.00,000.00,018.7,018.1,000.0,026.8,020.3,12.9,0000.0,0003.46,0000.60,0000.21
2024-03-03 21:56:00,SystemResetWarning,0815.5,5.01,000.00,018.7,018.1,000.0,026.8,020.3,11.5,0000.0,0003.51,0000.62,0000.21
2024-03-03 21:57:00,SystemResetWarning,0815.5,5.00,000.00,018.7,018.1,000.0,026.8,020.3,11.8,0000.0,0003.55,0000.62,0000.21
2024-03-03 21:58:00,SystemResetWarning,0815.7,5.00,000.00,018.7,018.1,000.0,026.9,020.3,12.5,0000.0,0003.45,0000.58,0000.20
2024-03-03 21:59:00,SystemResetWarning,0815.7,5.00,000.00,018.7,018.1,000.0,026.9,020.3,12.2,0000.0,0003.01,0000.54,0000.21
